TimeMDT,TemperatureF,Dew PointF,Humidity,Sea Level PressureIn,VisibilityMPH,Wind Direction,Wind SpeedMPH,Gust SpeedMPH,PrecipitationIn,Events,Conditions,WindDirDegrees,DateUTC
12:55 AM,64.9,42.1,43,29.86,10.0,North,16.1,-,N/A,,Scattered Clouds,10,2013-07-29 06:55:00
1:55 AM,64.0,42.1,45,29.86,10.0,NNE,17.3,21.9,N/A,,Clear,20,2013-07-29 07:55:00
2:55 AM,62.1,43.0,50,29.87,10.0,NNE,17.3,24.2,N/A,,Clear,20,2013-07-29 08:55:00
3:55 AM,61.0,43.0,52,29.88,10.0,North,-9999.0,-,N/A,,Clear,0,2013-07-29 09:55:00
4:55 AM,60.1,43.0,53,29.90,10.0,NNE,16.1,23.0,N/A,,Clear,30,2013-07-29 10:55:00
5:55 AM,60.1,43.0,53,29.92,10.0,NNE,11.5,24.2,N/A,,Scattered Clouds,30,2013-07-29 11:55:00
6:55 AM,60.1,43.0,53,29.93,10.0,NNE,9.2,-,N/A,,Mostly Cloudy,30,2013-07-29 12:55:00
7:55 AM,63.0,44.1,50,29.94,10.0,NNE,12.7,-,N/A,,Clear,30,2013-07-29 13:55:00
8:55 AM,66.9,44.1,44,29.94,10.0,NNE,8.1,-,N/A,,Partly Cloudy,20,2013-07-29 14:55:00
9:55 AM,69.1,45.0,42,29.95,10.0,NNE,10.4,-,N/A,,Clear,20,2013-07-29 15:55:00
10:55 AM,71.1,44.1,38,29.94,10.0,NNE,15.0,-,N/A,,Clear,20,2013-07-29 16:55:00
1:55 PM,73.9,46.0,37,29.91,10.0,Variable,3.5,-,N/A,,Clear,0,2013-07-29 19:55:00
2:55 PM,77.0,46.0,33,29.90,10.0,NE,6.9,-,N/A,,Clear,50,2013-07-29 20:55:00
3:55 PM,77.0,43.0,30,29.89,10.0,SSE,6.9,-,N/A,,Clear,160,2013-07-29 21:55:00
4:55 PM,79.0,42.1,27,29.88,10.0,Calm,Calm,-,N/A,,Partly Cloudy,0,2013-07-29 22:55:00
5:55 PM,79.0,44.1,29,29.87,10.0,ENE,6.9,-,N/A,,Partly Cloudy,70,2013-07-29 23:55:00
6:55 PM,79.0,43.0,28,29.86,10.0,SSE,6.9,-,N/A,,Clear,150,2013-07-30 00:55:00
7:55 PM,79.0,43.0,28,29.87,10.0,North,3.5,-,N/A,,Clear,360,2013-07-30 01:55:00
8:55 PM,70.0,46.9,44,29.89,10.0,NNE,8.1,-,N/A,,Scattered Clouds,20,2013-07-30 02:55:00
9:55 PM,66.9,46.0,47,29.92,10.0,North,9.2,-,N/A,,Clear,10,2013-07-30 03:55:00
10:55 PM,66.0,44.1,45,29.94,10.0,NNE,17.3,-,N/A,,Clear,30,2013-07-30 04:55:00
11:55 PM,64.0,45.0,50,29.95,10.0,NNE,13.8,-,N/A,,Clear,20,2013-07-30 05:55:00